Weather History for Kremmling, CO

Change the Weather History Date:

Saturday, May 3, 2014

  Actual Average (KEGE) Record (KEGE)
Temperature  
Mean Temperature 50 °F -  
Max Temperature 73 °F 66 °F 81 °F (1952)
Min Temperature 28 °F 30 °F 19 °F (1972)
Degree Days  
Heating Degree Days 14    
Moisture  
Dew Point 18 °F    
Average Humidity 38    
Maximum Humidity 86    
Minimum Humidity 6    
Precipitation  
Precipitation 0.00 in - - ()
Sea Level Pressure  
Sea Level Pressure 30.14 in    
Wind  
Wind Speed 5 mph (WSW)    
Max Wind Speed 22 mph    
Max Gust Speed 31 mph    
Visibility 10 miles    
Events      
Averages and records for this station are not official NWS values.
T = Trace of Precipitation, MM = Missing Value Source: NWS Daily Summary

Daily Weather History Graph

Daily Weather History Graph

Search for Another Location

Airport:

Trip Planner

Search our weather history database for the weather conditions in past years. The results will help you decide how hot, cold, wet, or windy it might be!

Date:

Astronomy

May. 03, 2014 Rise Set
Actual Time 6:02 AM MDT 8:02 PM MDT
Civil Twilight 5:33 AM MDT 8:32 PM MDT
Nautical Twilight 4:57 AM MDT 9:08 PM MDT
Astronomical Twilight 4:18 AM MDT 9:47 PM MDT
Moon 9:35 AM MDT (5/3) No Moon Set
Length of Visible Light 14h 58m
Length of Day
13h 59m
Waxing Crescent, 20% of the Moon is Illuminated
May 3
Waxing Crescent
May 6
First Quarter
May 14
Full
May 21
Last Quarter
May 28
New

Hourly Weather History & Observations

Time (MDT) Temp. Windchill Dew Point Humidity Pressure Visibility Wind Dir Wind Speed Gust Speed Precip Events Conditions
12:16 AM 42.8 °F 38.6 °F 26.6 °F 53% 30.16 in 10.0 mi ESE 6.9 mph - N/A   Overcast
12:35 AM 41.0 °F 35.8 °F 26.6 °F 57% 30.17 in 10.0 mi East 8.1 mph - N/A   Overcast
12:56 AM 39.2 °F 35.9 °F 26.6 °F 61% 30.17 in 10.0 mi NE 4.6 mph - N/A   Scattered Clouds
1:16 AM 39.2 °F - 26.6 °F 61% 30.17 in 10.0 mi Calm Calm - N/A   Clear
1:36 AM 37.4 °F - 26.6 °F 65% 30.17 in 10.0 mi Calm Calm - N/A   Mostly Cloudy
1:56 AM 37.4 °F - 26.6 °F 65% 30.18 in 10.0 mi Calm Calm - N/A   Scattered Clouds
2:16 AM 37.4 °F 34.9 °F 26.6 °F 65% 30.18 in 10.0 mi NNE 3.5 mph - N/A   Clear
2:36 AM 33.8 °F - 26.6 °F 75% 30.18 in 10.0 mi Calm Calm - N/A   Clear
2:56 AM 33.8 °F - 26.6 °F 75% 30.18 in 10.0 mi Calm Calm - N/A   Clear
3:16 AM 32.0 °F - 24.8 °F 75% 30.18 in 10.0 mi Calm Calm - N/A   Clear
3:36 AM 30.2 °F - 23.0 °F 75% 30.18 in 10.0 mi Calm Calm - N/A   Clear
4:16 AM 32.0 °F - 24.8 °F 75% 30.18 in 10.0 mi Calm Calm - N/A   Clear
4:36 AM 30.2 °F - 23.0 °F 75% 30.18 in 10.0 mi Calm Calm - N/A   Clear
4:56 AM 28.4 °F - 23.0 °F 80% 30.18 in 10.0 mi Calm Calm - N/A   Clear
5:16 AM 30.2 °F - 23.0 °F 75% 30.18 in 10.0 mi Calm Calm - N/A   Clear
5:36 AM 30.2 °F - 24.8 °F 80% 30.19 in 10.0 mi Calm Calm - N/A   Clear
5:55 AM 30.2 °F - 24.8 °F 80% 30.19 in 10.0 mi Calm Calm - N/A   Clear
6:16 AM 30.2 °F - 26.6 °F 86% 30.19 in 10.0 mi Calm Calm - N/A   Clear
6:36 AM 30.2 °F - 26.6 °F 86% 30.20 in 10.0 mi Calm Calm - N/A   Clear
6:56 AM 30.2 °F - 24.8 °F 80% 30.20 in 10.0 mi Calm Calm - N/A   Clear
7:16 AM 32.0 °F - 26.6 °F 80% 30.21 in 10.0 mi Calm Calm - N/A   Clear
7:36 AM 33.8 °F - 28.4 °F 81% 30.21 in 10.0 mi Calm Calm - N/A   Clear
7:56 AM 35.6 °F - 28.4 °F 75% 30.22 in 10.0 mi Calm Calm - N/A   Clear
8:16 AM 37.4 °F - 28.4 °F 70% 30.21 in 10.0 mi Calm Calm - N/A   Clear
8:36 AM 41.0 °F - 28.4 °F 61% 30.20 in 10.0 mi Calm Calm - N/A   Clear
8:55 AM 42.8 °F - 26.6 °F 53% 30.20 in 10.0 mi Calm Calm - N/A   Clear
9:15 AM 48.2 °F - 30.2 °F 50% 30.19 in 10.0 mi Calm Calm - N/A   Clear
9:37 AM 51.8 °F - 26.6 °F 38% 30.18 in 10.0 mi SE 4.6 mph - N/A   Clear
9:55 AM 53.6 °F - 26.6 °F 35% 30.18 in 10.0 mi Calm Calm - N/A   Clear
10:16 AM 55.4 °F - 26.6 °F 33% 30.17 in 10.0 mi SSE 3.5 mph - N/A   Clear
10:36 AM 60.8 °F - 19.4 °F 20% 30.17 in 10.0 mi SSE 3.5 mph - N/A   Clear
10:56 AM 60.8 °F - 19.4 °F 20% 30.17 in 10.0 mi WSW 15.0 mph 19.6 mph N/A   Clear
11:16 AM 64.4 °F - 17.6 °F 16% 30.16 in 10.0 mi WSW 17.3 mph 20.7 mph N/A   Clear
11:36 AM 66.2 °F - 15.8 °F 14% 30.16 in 10.0 mi WSW 11.5 mph 24.2 mph N/A   Clear
11:55 AM 66.2 °F - 14.0 °F 13% 30.16 in 10.0 mi SW 10.4 mph 17.3 mph N/A   Clear
12:16 PM 69.8 °F - 14.0 °F 12% 30.15 in 10.0 mi WNW 10.4 mph 17.3 mph N/A   Clear
12:36 PM 69.8 °F - 8.6 °F 9% 30.14 in 10.0 mi West 21.9 mph 26.5 mph N/A   Clear
12:56 PM 69.8 °F - 10.4 °F 10% 30.13 in 10.0 mi West 12.7 mph 19.6 mph N/A   Clear
1:16 PM 69.8 °F - 10.4 °F 10% 30.12 in 10.0 mi West 12.7 mph 20.7 mph N/A   Clear
1:36 PM 69.8 °F - 8.6 °F 9% 30.12 in 10.0 mi WSW 13.8 mph 20.7 mph N/A   Clear
2:16 PM 71.6 °F - 5.0 °F 7% 30.11 in 10.0 mi SW 16.1 mph 24.2 mph N/A   Scattered Clouds
2:36 PM 73.4 °F - 5.0 °F 7% 30.10 in 10.0 mi WSW 10.4 mph 24.2 mph N/A   Scattered Clouds
2:56 PM 71.6 °F - 5.0 °F 7% 30.10 in 10.0 mi West 5.8 mph - N/A   Scattered Clouds
3:16 PM 73.4 °F - 3.2 °F 6% 30.09 in 10.0 mi West 12.7 mph 24.2 mph N/A   Scattered Clouds
3:36 PM 73.4 °F - 8.6 °F 8% 30.08 in 10.0 mi WSW 17.3 mph 24.2 mph N/A   Clear
3:55 PM 69.8 °F - 3.2 °F 7% 30.08 in 10.0 mi WSW 19.6 mph 28.8 mph N/A   Scattered Clouds
4:16 PM 71.6 °F - 5.0 °F 7% 30.08 in 10.0 mi SW 16.1 mph 25.3 mph N/A   Clear
4:35 PM 69.8 °F - 5.0 °F 8% 30.08 in 10.0 mi SW 16.1 mph 31.1 mph N/A   Clear
4:56 PM 71.6 °F - 6.8 °F 8% 30.07 in 10.0 mi SW 16.1 mph 27.6 mph N/A   Clear
5:16 PM 69.8 °F - 8.6 °F 9% 30.08 in 10.0 mi WSW 16.1 mph 26.5 mph N/A   Scattered Clouds
5:35 PM 71.6 °F - 5.0 °F 7% 30.08 in 10.0 mi WSW 15.0 mph 28.8 mph N/A   Scattered Clouds
5:56 PM 71.6 °F - 8.6 °F 9% 30.07 in 10.0 mi WSW 11.5 mph 17.3 mph N/A   Mostly Cloudy
6:16 PM 69.8 °F - 10.4 °F 10% 30.07 in 10.0 mi WSW 12.7 mph 20.7 mph N/A   Scattered Clouds
6:36 PM 69.8 °F - 5.0 °F 8% 30.06 in 10.0 mi WSW 16.1 mph 26.5 mph N/A   Scattered Clouds
6:56 PM 64.4 °F - 8.6 °F 11% 30.07 in 10.0 mi West 9.2 mph - N/A   Scattered Clouds
7:16 PM 66.2 °F - 12.2 °F 12% 30.07 in 10.0 mi WSW 9.2 mph - N/A   Scattered Clouds
7:36 PM 62.6 °F - 10.4 °F 13% 30.07 in 10.0 mi WSW 9.2 mph 17.3 mph N/A   Scattered Clouds
7:56 PM 60.8 °F - 10.4 °F 14% 30.07 in 10.0 mi West 10.4 mph - N/A   Clear
8:16 PM 60.8 °F - 10.4 °F 14% 30.07 in 10.0 mi WSW 8.1 mph 16.1 mph N/A   Clear
8:36 PM 59.0 °F - 12.2 °F 16% 30.08 in 10.0 mi WSW 6.9 mph - N/A   Clear
8:56 PM 55.4 °F - 12.2 °F 18% 30.08 in 10.0 mi Calm Calm - N/A   Clear
9:16 PM 55.4 °F - 15.8 °F 21% 30.09 in 10.0 mi North 3.5 mph - N/A   Clear
9:36 PM 50.0 °F - 17.6 °F 28% 30.09 in 10.0 mi ENE 4.6 mph - N/A   Clear
9:56 PM 50.0 °F - 17.6 °F 28% 30.09 in 10.0 mi Calm Calm - N/A   Clear
10:16 PM 50.0 °F - 15.8 °F 26% 30.09 in 10.0 mi Calm Calm - N/A   Clear
10:35 PM 51.8 °F - 14.0 °F 22% 30.09 in 10.0 mi SW 4.6 mph - N/A   Clear
10:56 PM 46.4 °F - 17.6 °F 32% 30.09 in 10.0 mi Calm Calm - N/A   Clear
11:16 PM 50.0 °F - 17.6 °F 28% 30.09 in 10.0 mi NNW 3.5 mph - N/A   Clear
11:36 PM 41.0 °F 39.0 °F 19.4 °F 42% 30.09 in 10.0 mi ESE 3.5 mph - N/A   Clear
11:56 PM 41.0 °F 38.0 °F 21.2 °F 45% 30.10 in 10.0 mi SE 4.6 mph - N/A   Clear